Back to catalog

STARLINK-4355

AliveCommunicationsSSO
NORAD 53048·PAYLOAD·🇺🇸 United States

Launched Jul 11, 2022 from Vandenberg Space Force Base

Loading…

Next Passes (next 24 hours)

TLE

FreshSource: CelesTrak SupGP

Epoch: Sep 14, 2026, 21:43 UTC

1 53048C 22077F   26257.90534722  .00075516  00000+0  23440-2 0  2577
2 53048  97.2857  73.7343 0001122  96.8615 203.7502 15.33404347    12

Track STARLINK-4355 in real time with AllMySat

Download on the App Store